This demonstration page uses our WeatherBlox Daily Observations layout. Learn more.

Left ArrowRight Arrow

39.08367, -84.50855

Hourly Observations for January 18, 2015

Temp ( °F °C ) Dew Point ( °F °C ) Humidity (%) Winds ( mph kmh ) Pressure ( in mb ) Visibility ( mi km ) Precip ( " mm )
12:53 am 00:53 Cloudy 49 9.4 27 -2.8 43 43 SSW 16 26 29.81 1010 10 16.0934 0 0
1:53 am 01:53 Cloudy 49 9.4 28 -2.2 44 44 SW 15 24 29.8 1009 10 16.0934 0 0
2:53 am 02:53 Cloudy with Light Rain 45 7.2 35 1.7 68 68 WSW 17 28 29.82 1010 10 16.0934 0 0.0254
3:51 am 03:51 Cloudy with Light Rain 43 6 41 5 93 93 W 12 19 29.85 1011 8 12.87472 0.04 1.016
3:53 am 03:53 Cloudy with Rain 42 5.6 41 5 96 96 WNW 15 24 29.85 1011 8 12.87472 0.04 1.016
4:36 am 04:36 Cloudy with Light Rain 37 3 N/A N/A W 10 17 29.88 1012 9 14.48406 0 0
4:53 am 04:53 Cloudy with Light Rain 37 3 N/A N/A SW 7 11 29.86 1011 10 16.0934 0.04 1.016
5:53 am 05:53 Partly Cloudy 36 2 N/A N/A Calm 29.85 1011 10 16.0934 0 0.0254
6:53 am 06:53 Cloudy 36 2 N/A N/A SSW 7 11 29.87 1011 10 16.0934 0 0.0254
7:22 am 07:22 Cloudy 37 3 N/A N/A SW 10 17 29.91 1013 10 16.0934 0 0
7:53 am 07:53 Cloudy 37 3 N/A N/A SSW 13 20 29.88 1012 10 16.0934 0 0
8:23 am 08:23 Cloudy 37 3 N/A N/A SW 10 17 29.91 1013 10 16.0934 0 0
8:42 am 08:42 Cloudy 39 4 N/A N/A SW 10 17 29.91 1013 10 16.0934 0 0
8:53 am 08:53 Cloudy 39 4 N/A N/A WSW 14 22 29.9 1013 10 16.0934 0 0
9:09 am 09:09 Mostly Cloudy 39 4 N/A N/A SW 10 17 29.94 1014 10 16.0934 0 0
9:53 am 09:53 Mostly Cloudy 39 4 N/A N/A SW 13 20 29.91 1013 10 16.0934 0 0
10:10 am 10:10 Cloudy 39 4 N/A N/A W 15 24 29.94 1014 10 16.0934 0 0
10:53 am 10:53 Cloudy 39 4 N/A N/A W 16 26 29.94 1014 10 16.0934 0 0
11:53 am 11:53 Cloudy 41 5 34 1.1 76 76 WSW 9 15 29.92 1013 10 16.0934 0 0
12:51 pm 12:51 Cloudy 43 6 34 1 71 71 WSW 10 17 29.94 1014 10 16.0934 0 0
12:53 pm 12:53 Cloudy 42 5.6 34 1.1 73 73 WSW 12 19 29.9 1013 10 16.0934 0 0
1:53 pm 13:53 Cloudy 43 6.1 32 0 65 65 W 10 17 29.89 1012 10 16.0934 0 0
2:53 pm 14:53 Cloudy 44 6.7 31 -0.6 60 60 W 12 19 29.91 1013 10 16.0934 0 0
3:53 pm 15:53 Mostly Cloudy 45 7.2 31 -0.6 58 58 VRB 7 11 29.92 1013 10 16.0934 0 0
4:53 pm 16:53 Cloudy 44 6.7 30 -1.1 58 58 WSW 10 17 29.94 1014 10 16.0934 0 0
5:53 pm 17:53 Cloudy 43 6.1 30 -1.1 60 60 W 10 17 29.96 1015 10 16.0934 0 0
6:53 pm 18:53 Cloudy 42 5.6 30 -1.1 62 62 WSW 6 9 29.98 1015 10 16.0934 0 0
7:53 pm 19:53 Cloudy 41 5 30 -1.1 65 65 WSW 7 11 29.99 1016 10 16.0934 0 0
8:53 pm 20:53 Cloudy 42 5.6 30 -1.1 62 62 WNW 8 13 30.01 1016 10 16.0934 0 0
9:53 pm 21:53 Cloudy 40 4.4 30 -1.1 68 68 W 6 9 30.02 1017 10 16.0934 0 0
10:53 pm 22:53 Cloudy 41 5 30 -1.1 65 65 VRB 3 6 30.04 1017 10 16.0934 0 0
11:53 pm 23:53 Cloudy 39 3.9 30 -1.1 70 70 Calm 30.06 1018 10 16.0934 0 0

Powered by AerisWeather